www.pogodaiklimat.ru

Погода и климат >> Архив погоды >> Россия >> Краснодарский край >> Краснодар


АРХИВ ПОГОДЫ в Краснодаре

Время (UTC), дата Ветер
(напр.,м/с)
 
Видим.   Явления Облачность Т
(С)
Тd
(С)
f
(%)
Тe
(С)
Тes
(С)
Комфортность P
(гПа)
Po
(гПа)
Тmin
(С)
Tmax
(С)
R
(мм)
R24
(мм)
S
(см)
03 5.12 З 3 4000 м слабый ливневой дождь 10/10 1000 м
[Cb cap]
+8.0 +7.2 95 +5 +5 тепло 1013.4 1009.3 +7.6 11
06 5.12 З 3 4000 м слабый ливневой дождь 10/10 300 м
[Cb cap]
+6.4 +5.4 93 +3 +3 тепло 1015.0 1010.8 +6.4
09 5.12 З 4 1000 м слабый дождь {ливн. осадки} 10/10 300 м
[Frnb Ns]
+5.4 +4.5 94 +1 +1 по сезону 1015.4 1011.2
12 5.12 З 3 4000 м дымка {ливн. осадки, дождь} 10/10 600 м
[Sc]
+4.3 +2.2 86 +1 +1 по сезону 1016.0 1011.8
15 5.12 З 1 10 км 10/8 600 м
[Sc Ac und]
+3.4 +0.2 80 +2 +2 по сезону 1017.5 1013.2 +8.6 4
18 5.12 СЗ 2 10 км 10/3 600 м
[Sc Ac und]
+3.0 -0.4 78 0 0 по сезону 1018.0 1013.7
21 5.12 СЗ 1 10 км 10/0
[Ac und]
+1.5 -0.9 84 -0 -0 по сезону 1017.7 1013.4
00 6.12 СЗ 1 10 км 10/0
[Ac trans Cs]
+0.3 -1.2 90 -2 -2 по сезону 1017.2 1012.9
03 6.12 В 1 10 км 3/3 1000 м
[Sc]
-0.2 -1.6 90 -2 -2 по сезону 1017.7 1013.4 -0.4
06 6.12 штиль 0 10 км 5/3 1000 м
[Sc Ci fib]
-1.0 -2.0 93 -2 -2 по сезону 1018.3 1014.0 -2.1
09 6.12 З 2 10 км 8/6 1000 м
[Sc Ac trans]
+4.0 -2.4 63 +2 +3 по сезону 1017.8 1013.6
12 6.12 ЮЗ 3 10 км 9/9 1000 м
[Cb cap]
+4.9 -3.3 55 +2 +2 по сезону 1017.2 1013.0
15 6.12 ЮЗ 3 10 км 10/10 1000 м
[Sc diur, vesp]
+1.8 -2.0 76 -2 -2 прохладно 1018.1 1013.8 +5.2
18 6.12 ЮЗ 4 10 км 8/8 1000 м
[Sc diur, vesp]
+1.5 -1.4 81 -4 -4 прохладно 1018.5 1014.2
21 6.12 Ю 3 н/о н/о +0.7 -3.3 75 -4 -4 прохладно 1017.2 1012.9
00 7.12 Ю 5 10 км 8/8 1000 м
[Sc diur, vesp]
+3.0 -2.0 70 -2 -2 по сезону 1015.0 1010.8
03 7.12 ЮЗ 4
{11}
10 км 10/10 1000 м
[Cb cap]
+4.1 +2.3 88 -0 -0 по сезону 1014.7 1010.4 -1.1
06 7.12 Ю 4 10 км 10/10 1000 м
[Cb cap]
+4.1 +2.3 88 -0 -0 по сезону 1014.5 1010.3
09 7.12 ЮЗ 8-12
{12}
4000 м слабый ливневой дождь 10/10 300 м
[Cb cap]
+5.1 +3.3 88 -1 -1 по сезону 1013.2 1009.0
12 7.12 З 4
{13}
10 км слабый ливневой дождь 10/10 600 м
[Cb cap]
+3.9 +2.0 87 -1 -1 прохладно 1014.6 1010.4
15 7.12 З 1 10 км {ливн. осадки} 10/10 1000 м
[Sc diur, vesp]
+3.1 +1.5 89 +2 +2 по сезону 1016.7 1012.4 +5.2 5
18 7.12 З 3 10 км 10/5 300 м
[Cb cap Ac As]
+3.5 +0.4 80 -0 -0 по сезону 1017.9 1013.7
21 7.12 ЮЗ 2 10 км слабый ливневой дождь 10/10 600 м
[Cb cap]
+2.5 +1.0 90 -1 -1 по сезону 1017.6 1013.4
00 8.12 ЮЗ 4 10 км {ливн. осадки} 10/5 600 м
[Cb cap Ac As]
+3.7 +2.5 92 -1 -1 по сезону 1016.5 1012.3
03 8.12 З 4 4000 м слабая морось 10/10 300 м
[St]
+4.9 +3.6 91 +1 +1 по сезону 1017.5 1013.2 +2.2 3
06 8.12 ЮЗ 4 4000 м слабая морось 10/10 200 м
[St]
+5.2 +4.1 93 +1 +1 по сезону 1019.4 1015.2
09 8.12 ЮЗ 4 10 км {морось} 10/10 300 м
[St]
+6.1 +4.3 88 +2 +2 по сезону 1019.9 1015.7
12 8.12 ЮЗ 4 10 км 10/10 600 м
[Cb cap]
+7.6 +3.6 76 +4 +4 по сезону 1019.8 1015.6
15 8.12 штиль 0 10 км 8/8 600 м
[Cb cap]
+6.2 +4.4 88 +5 +5 тепло 1020.1 1015.9 +7.7 1
18 8.12 ЮВ 1 10 км 9/9 600 м
[Cb cap]
+5.4 +4.1 91 +4 +4 тепло 1020.4 1016.1
21 8.12 Ю 2 10 км 9/9 1000 м
[Cb cap]
+4.1 +3.2 94 +1 +1 по сезону 1020.8 1016.5
00 9.12 ЮВ 1 н/о н/о +4.4 +3.4 93 +3 +3 тепло 1021.0 1016.7
03 9.12 ЮВ 1 10 км 5/5 1000 м
[Cb cap]
+5.0 +3.9 93 +4 +4 тепло 1020.7 1016.5 +3.7 1
06 9.12 В 1 10 км 8/1 1000 м
[Sc Ac trans Ci fib]
+3.4 +2.3 92 +2 +2 по сезону 1020.9 1016.6 +2.4
09 9.12 Ю 7-11
{12}
10 км 3/1 1000 м
[Sc Ci fib]
+12.9 +5.0 59 +10 +11 тепло 1019.9 1015.8
12 9.12 Ю 6-10
{12}
10 км 3/3 1000 м
[Sc]
+12.8 +4.1 55 +11 +11 тепло 1019.6 1015.5
15 9.12 Ю 4
{10}
10 км 3/0
[Ac trans]
+6.3 +3.1 80 +3 +3 по сезону 1020.2 1016.0 +13.6
18 9.12 штиль 0 10 км ясно +5.2 +2.6 83 +4 +4 тепло 1019.6 1015.3
21 9.12 В 1 10 км ясно +3.2 +0.5 82 +2 +2 по сезону 1019.6 1015.3
00 10.12 В 2 10 км ясно +1.1 -0.3 90 -2 -2 по сезону 1019.4 1015.1
03 10.12 СВ 2 10 км ясно 0.0 -1.1 92 -4 -4 по сезону 1018.4 1014.1 0.0
06 10.12 СВ 2 10 км ясно +1.0 -0.6 89 -3 -2 по сезону 1017.7 1013.4 -0.4
09 10.12 В 2 10 км ясно +10.5 +1.3 53 +10 +13 тепло 1016.0 1011.9
12 10.12 Ю 6
{11}
10 км 3/0
[Ci sp]
+15.0 +1.2 39 +14 +14 тепло 1013.5 1009.5
15 10.12 В 4 10 км 5/0
[Ac trans]
+9.2 +1.8 60 +7 +7 тепло 1012.7 1008.5 +15.7
18 10.12 ЮВ 3 10 км 4/0
[Ac trans Ci fib]
+8.6 +0.3 56 +6 +6 тепло 1011.8 1007.6
21 10.12 ЮЗ 7-11
{17}
10 км слабый ливневой дождь 10/10 1000 м
[Cb cap]
+9.5 +6.4 81 +6 +6 тепло 1015.0 1010.9
00 11.12 Ю 4
{15}
10 км {ливн. осадки} 10/10 1000 м
[Cb cap]
+7.1 +3.9 80 +4 +4 тепло 1018.6 1014.4
03 11.12 ЮЗ 3
{11}
10 км {ливн. осадки} 10/10 1000 м
[Cb cap]
+4.4 -0.4 71 +1 +1 по сезону 1022.4 1018.1 +4.4 3
06 11.12 Ю 3 10 км {ливн. осадки} 9/9 1000 м
[Cb cap]
+4.1 +1.2 81 0 0 по сезону 1025.1 1020.9 +3.2
09 11.12 ЮВ 3 10 км 6/3 1000 м
[Sc Ci fib]
+7.3 +0.1 60 +5 +6 тепло 1025.6 1021.4
12 11.12 Ю 4 10 км 9/9 1000 м
[Cb cap Ac trans]
+8.6 +1.7 62 +6 +6 тепло 1024.9 1020.7
15 11.12 Ю 3 10 км 8/8 1000 м
[Sc diur, vesp]
+6.7 +0.6 65 +4 +4 по сезону 1026.0 1021.8 +9.1
18 11.12 В 1 10 км 3/3 1000 м
[Cu med, cong]
+4.3 +0.4 76 +3 +3 по сезону 1025.1 1020.8
21 11.12 В 2 10 км 4/4 1000 м
[Cu hum]
+3.7 +1.6 86 +1 +1 по сезону 1025.0 1020.8
00 12.12 СВ 2 10 км 3/3 1000 м
[Cu hum]
+4.7 +2.2 84 +2 +2 по сезону 1024.9 1020.7

 

Местоположение метеостанции Краснодар (Краснодарский край, Россия): широта 45.05 долгота 39.03 высота над уровнем моря 29 м.

В архиве по умолчанию представлена погода в Краснодаре за последнюю неделю. Архивные данные за месяц целиком и за предыдущие месяцы, начиная с января 2011 года, Вы можете получить, выбрав интересующий диапазон дат из раскрывающегося списка и нажав кнопку "Ввод!".

Внимание! Время в таблицах - всемирное. Для получения местного времени необходимо прибавить поправку, которая в Краснодаре равна 3 ч.

Смотрите также архив погоды в соседних городах и на ближайших метеорологических станциях:

Погода в Горячем Ключе (Краснодарский край, Россия) (47 км)
Погода в Усть-Лабинске (Краснодарский край, Россия) (58 км)
Погода в Кореновске (Краснодарский край, Россия) (59 км)
Погода в Тимашевске (Краснодарский край, Россия) (65 км)
Погода в Славянске-на-Кубани (Краснодарский край, Россия) (76 км)
Погода в Белореченске (Краснодарский край, Россия) (76 км)
Погода в Крымске (Краснодарский край, Россия) (82 км)
Погода в Джубге (Краснодарский край, Россия) (84 км)
Погода в Горном (Краснодарский край, Россия) (88 км)
Погода в Геленджике (Краснодарский край, Россия) (92 км)

Пояснения к столбцам:

Ветер - указаны скорость ветра в м/с - средняя за 10 мин, порывы в срок и между сроками (в фигурных скобках) и направление, откуда дует ветер: С - северный, СВ - северо-восточный, В - восточный, ЮВ - юго-восточный, Ю - южный, ЮЗ - юго-западный, З - западный, СЗ - северо-западный.
Видимость - горизонтальная дальность видимости в метрах или километрах. При видимости от 1 до 10 км при отсутствии осадков обычно наблюдается дымка, при ухудшении видимости до 1 км и менее - туман. В сухую погоду видимость может ухудшаться дымом, пылью или мглою.
Явления - указаны атмосферные явления, наблюдавшиеся в срок или в последний час перед сроком; фигурными скобками обозначены явления, наблюдавшиеся между сроками (за 1-3 часа до срока); квадратными скобками обозначены град или гололедные отложения с указанием их диаметра в мм.
Облачность - указаны через наклонную черту общая и нижняя облачность в баллах и высота нижней границы облаков в метрах; квадратными скобками обозначены формы облаков: Ci - перистые, Cs - перисто-слоистые, Cc - перисто-кучевые, Ac - высококучевые, As - высокослоистые, Sc - слоисто-кучевые, Ns - слоисто-дождевые, Cu - кучевые, Cb - кучево-дождевые. Подробнее классификацию облаков см. в Атласе облаков (PDF).
T - Температура воздуха - температура, измеренная на высоте 2 м над землей.
Td - Температура точки росы - температура, при понижении до которой содержащийся в воздухе водяной пар достигнет насыщения.
f - Относительная влажность воздуха - влажноcть воздуха, измеренная на высоте 2 м над землей.
Te - Эффективная температура - температура, которую ощущает одетый по сезону человек в тени. Характеристика душности погоды. При расчете учитывается влияние влажности воздуха и скорости ветра на теплоощущения человека.
Tes - Эффективная температура на солнце - температура, которую ощущает человек, с поправкой на солнечный нагрев. Характеристика знойности погоды. Зависит от высоты солнца над горизонтом, облачности и скорости ветра. Ночью, в пасмурную погоду, а также при ветре 12 м/с и более поправка равна нулю.
P - Атмосферное давление - приведенное к уровню моря атмосферное давление.
Po - Атмосферное давление - измеренное на уровне метеостанции атмосферное давление.
Tmin - Минимальная температура - минимум температуры воздуха на высоте 2 м над землей.
Tmax - Максимальная температура - максимум температуры воздуха на высоте 2 м над землей.
R - Количество осадков - Количество выпавших осадков за период времени, мм. При наведении курсора мыши на число - период времени, за который выпало указанное количество осадков.
R24 - Количество осадков - Количество выпавших осадков за 24 часа, мм.
S - Снежный покров - Высота снежного покрова, см. При наведении курсора мыши на число - состояние снежного покрова и степень покрытия местности в баллах.